Year,Month,Day,Hour,Minute,Value (Times are PST for temperature in C)
2016,08,20,00,00,15.40
2016,08,20,00,01,15.40
2016,08,20,00,02,15.40
2016,08,20,00,03,15.30
2016,08,20,00,04,15.30
2016,08,20,00,05,15.30
2016,08,20,00,06,15.30
2016,08,20,00,07,15.20
2016,08,20,00,08,15.20
2016,08,20,00,09,15.10
2016,08,20,00,10,15.10
2016,08,20,00,11,15.10
2016,08,20,00,12,15.10
2016,08,20,00,13,15.00
2016,08,20,00,14,15.00
2016,08,20,00,15,14.90
2016,08,20,00,16,14.90
2016,08,20,00,17,14.90
2016,08,20,00,18,14.90
2016,08,20,00,19,14.90
2016,08,20,00,20,14.90
2016,08,20,00,21,14.90
2016,08,20,00,22,14.90
2016,08,20,00,23,14.90
2016,08,20,00,24,14.90
2016,08,20,00,25,14.90
2016,08,20,00,26,14.90
2016,08,20,00,27,14.90
2016,08,20,00,28,14.90
2016,08,20,00,29,14.90
2016,08,20,00,30,14.90
2016,08,20,00,31,14.80
2016,08,20,00,32,14.80
2016,08,20,00,33,14.80
2016,08,20,00,34,14.80
2016,08,20,00,35,14.80
2016,08,20,00,36,14.80
2016,08,20,00,37,14.80
2016,08,20,00,38,14.80
2016,08,20,00,39,14.80
2016,08,20,00,40,14.80
2016,08,20,00,41,14.80
2016,08,20,00,42,14.80
2016,08,20,00,43,14.80
2016,08,20,00,44,14.80
2016,08,20,00,45,14.80
2016,08,20,00,46,14.80
2016,08,20,00,47,14.80
2016,08,20,00,48,14.80
2016,08,20,00,49,14.80
2016,08,20,00,50,14.80
2016,08,20,00,51,14.80
2016,08,20,00,52,14.80
2016,08,20,00,53,14.80
2016,08,20,00,54,14.80
2016,08,20,00,55,14.80
2016,08,20,00,56,14.80
2016,08,20,00,57,14.80
2016,08,20,00,58,14.80
2016,08,20,00,59,14.90
2016,08,20,01,00,14.90
2016,08,20,01,01,14.90
2016,08,20,01,02,15.00
2016,08,20,01,03,15.00
2016,08,20,01,04,14.90
2016,08,20,01,05,15.00
2016,08,20,01,06,14.90
2016,08,20,01,07,14.90
2016,08,20,01,08,14.90
2016,08,20,01,09,14.90
2016,08,20,01,10,14.90
2016,08,20,01,11,14.90
2016,08,20,01,12,14.90
2016,08,20,01,13,15.00
2016,08,20,01,14,15.00
2016,08,20,01,15,15.10
2016,08,20,01,16,15.10
2016,08,20,01,17,15.10
2016,08,20,01,18,15.10
2016,08,20,01,19,15.10
2016,08,20,01,20,15.10
2016,08,20,01,21,15.20
2016,08,20,01,22,15.20
2016,08,20,01,23,15.20
2016,08,20,01,24,15.30
2016,08,20,01,25,15.30
2016,08,20,01,26,15.40
2016,08,20,01,27,15.40
2016,08,20,01,28,15.50
2016,08,20,01,29,15.50
2016,08,20,01,30,15.50
2016,08,20,01,31,15.40
2016,08,20,01,32,15.40
2016,08,20,01,33,15.40
2016,08,20,01,34,15.40
2016,08,20,01,35,15.50
2016,08,20,01,36,15.50
2016,08,20,01,37,15.60
2016,08,20,01,38,15.60
2016,08,20,01,39,15.60
2016,08,20,01,40,15.60
2016,08,20,01,41,15.60
2016,08,20,01,42,15.60
2016,08,20,01,43,15.70
2016,08,20,01,44,15.70
2016,08,20,01,45,15.70
2016,08,20,01,46,15.70
2016,08,20,01,47,15.70
2016,08,20,01,48,15.70
2016,08,20,01,49,15.60
2016,08,20,01,50,15.60
2016,08,20,01,51,15.60
2016,08,20,01,52,15.60
2016,08,20,01,53,15.60
2016,08,20,01,54,15.60
2016,08,20,01,55,15.60
2016,08,20,01,56,15.50
2016,08,20,01,57,15.50
2016,08,20,01,58,15.50
2016,08,20,01,59,15.40
2016,08,20,02,00,15.40
2016,08,20,02,01,15.40
2016,08,20,02,02,15.40
2016,08,20,02,03,15.40
2016,08,20,02,04,15.30
2016,08,20,02,05,15.30
2016,08,20,02,06,15.30
2016,08,20,02,07,15.30
2016,08,20,02,08,15.30
2016,08,20,02,09,15.30
2016,08,20,02,10,15.30
2016,08,20,02,11,15.20
2016,08,20,02,12,15.20
2016,08,20,02,13,15.20
2016,08,20,02,14,15.20
2016,08,20,02,15,15.20
2016,08,20,02,16,15.20
2016,08,20,02,17,15.20
2016,08,20,02,18,15.20
2016,08,20,02,19,15.20
2016,08,20,02,20,15.10
2016,08,20,02,21,15.10
2016,08,20,02,22,15.10
2016,08,20,02,23,15.00
2016,08,20,02,24,14.90
2016,08,20,02,25,14.90
2016,08,20,02,26,14.80
2016,08,20,02,27,14.80
2016,08,20,02,28,14.80
2016,08,20,02,29,14.70
2016,08,20,02,30,14.70
2016,08,20,02,31,14.70
2016,08,20,02,32,14.70
2016,08,20,02,33,14.70
2016,08,20,02,34,14.60
2016,08,20,02,35,14.60
2016,08,20,02,36,14.60
2016,08,20,02,37,14.60
2016,08,20,02,38,14.60
2016,08,20,02,39,14.60
2016,08,20,02,40,14.60
2016,08,20,02,41,14.60
2016,08,20,02,42,14.60
2016,08,20,02,43,14.60
2016,08,20,02,44,14.60
2016,08,20,02,45,14.60
2016,08,20,02,46,14.60
2016,08,20,02,47,14.60
2016,08,20,02,48,14.50
2016,08,20,02,49,14.50
2016,08,20,02,50,14.50
2016,08,20,02,51,14.40
2016,08,20,02,52,14.40
2016,08,20,02,53,14.40
2016,08,20,02,54,14.40
2016,08,20,02,55,14.30
2016,08,20,02,56,14.30
2016,08,20,02,57,14.30
2016,08,20,02,58,14.30
2016,08,20,02,59,14.30
2016,08,20,03,00,14.20
2016,08,20,03,01,14.20
2016,08,20,03,02,14.20
2016,08,20,03,03,14.10
2016,08,20,03,04,14.10
2016,08,20,03,05,14.10
2016,08,20,03,06,14.00
2016,08,20,03,07,14.00
2016,08,20,03,08,14.00
2016,08,20,03,09,14.00
2016,08,20,03,10,13.90
2016,08,20,03,11,13.90
2016,08,20,03,12,13.90
2016,08,20,03,13,13.90
2016,08,20,03,14,13.90
2016,08,20,03,15,13.90
2016,08,20,03,16,13.90
2016,08,20,03,17,13.90
2016,08,20,03,18,13.90
2016,08,20,03,19,13.90
2016,08,20,03,20,13.90
2016,08,20,03,21,13.90
2016,08,20,03,22,13.90
2016,08,20,03,23,13.90
2016,08,20,03,24,13.90
2016,08,20,03,25,13.90
2016,08,20,03,26,13.90
2016,08,20,03,27,13.90
2016,08,20,03,28,13.90
2016,08,20,03,29,13.90
2016,08,20,03,30,13.80
2016,08,20,03,31,13.90
2016,08,20,03,32,13.90
2016,08,20,03,33,13.90
2016,08,20,03,34,14.00
2016,08,20,03,35,14.00
2016,08,20,03,36,14.10
2016,08,20,03,37,14.10
2016,08,20,03,38,14.10
2016,08,20,03,39,14.10
2016,08,20,03,40,14.10
2016,08,20,03,41,14.20
2016,08,20,03,42,14.20
2016,08,20,03,43,14.20
2016,08,20,03,44,14.20
2016,08,20,03,45,14.20
2016,08,20,03,46,14.20
2016,08,20,03,47,14.20
2016,08,20,03,48,14.20
2016,08,20,03,49,14.20
2016,08,20,03,50,14.20
2016,08,20,03,51,14.20
2016,08,20,03,52,14.20
2016,08,20,03,53,14.20
2016,08,20,03,54,14.20
2016,08,20,03,55,14.30
2016,08,20,03,56,14.30
2016,08,20,03,57,14.30
2016,08,20,03,58,14.40
2016,08,20,03,59,14.40
2016,08,20,04,00,14.40
2016,08,20,04,01,14.50
2016,08,20,04,02,14.50
2016,08,20,04,03,14.50
2016,08,20,04,04,14.50
2016,08,20,04,05,14.50
2016,08,20,04,06,14.50
2016,08,20,04,07,14.50
2016,08,20,04,08,14.40
2016,08,20,04,09,14.40
2016,08,20,04,10,14.40
2016,08,20,04,11,14.40
2016,08,20,04,12,14.30
2016,08,20,04,13,14.30
2016,08,20,04,14,14.30
2016,08,20,04,15,14.30
2016,08,20,04,16,14.20
2016,08,20,04,17,14.20
2016,08,20,04,18,14.20
2016,08,20,04,19,14.20
2016,08,20,04,20,14.20
2016,08,20,04,21,14.20
2016,08,20,04,22,14.20
2016,08,20,04,23,14.20
2016,08,20,04,24,14.20
2016,08,20,04,25,14.20
2016,08,20,04,26,14.20
2016,08,20,04,27,14.20
2016,08,20,04,28,14.10
2016,08,20,04,29,14.10
2016,08,20,04,30,14.10
2016,08,20,04,31,14.10
2016,08,20,04,32,14.20
2016,08,20,04,33,14.10
2016,08,20,04,34,14.10
2016,08,20,04,35,14.10
2016,08,20,04,36,14.10
2016,08,20,04,37,14.10
2016,08,20,04,38,14.10
2016,08,20,04,39,14.10
2016,08,20,04,40,14.10
2016,08,20,04,41,14.10
2016,08,20,04,42,14.00
2016,08,20,04,43,14.00
2016,08,20,04,44,14.00
2016,08,20,04,45,14.00
2016,08,20,04,46,13.90
2016,08,20,04,47,13.90
2016,08,20,04,48,13.90
2016,08,20,04,49,13.80
2016,08,20,04,50,13.80
2016,08,20,04,51,13.80
2016,08,20,04,52,13.80
2016,08,20,04,53,13.80
2016,08,20,04,54,13.70
2016,08,20,04,55,13.70
2016,08,20,04,56,13.80
2016,08,20,04,57,13.80
2016,08,20,04,58,13.70
2016,08,20,04,59,13.80
2016,08,20,05,00,13.70
2016,08,20,05,01,13.70
2016,08,20,05,02,13.70
2016,08,20,05,03,13.70
2016,08,20,05,04,13.70
2016,08,20,05,05,13.70
2016,08,20,05,06,13.70
2016,08,20,05,07,13.70
2016,08,20,05,08,13.70
2016,08,20,05,09,13.70
2016,08,20,05,10,13.70
2016,08,20,05,11,13.70
2016,08,20,05,12,13.60
2016,08,20,05,13,13.60
2016,08,20,05,14,13.60
2016,08,20,05,15,13.60
2016,08,20,05,16,13.60
2016,08,20,05,17,13.50
2016,08,20,05,18,13.50
2016,08,20,05,19,13.50
2016,08,20,05,20,13.40
2016,08,20,05,21,13.40
2016,08,20,05,22,13.40
2016,08,20,05,23,13.40
2016,08,20,05,24,13.40
2016,08,20,05,25,13.40
2016,08,20,05,26,13.40
2016,08,20,05,27,13.40
2016,08,20,05,28,13.40
2016,08,20,05,29,13.40
2016,08,20,05,30,13.40
2016,08,20,05,31,13.40
2016,08,20,05,32,13.40
2016,08,20,05,33,13.40
2016,08,20,05,34,13.40
2016,08,20,05,35,13.40
2016,08,20,05,36,13.40
2016,08,20,05,37,13.40
2016,08,20,05,38,13.40
2016,08,20,05,39,13.40
2016,08,20,05,40,13.40
2016,08,20,05,41,13.40
2016,08,20,05,42,13.40
2016,08,20,05,43,13.30
2016,08,20,05,44,13.30
2016,08,20,05,45,13.30
2016,08,20,05,46,13.30
2016,08,20,05,47,13.30
2016,08,20,05,48,13.30
2016,08,20,05,49,13.20
2016,08,20,05,50,13.20
2016,08,20,05,51,13.20
2016,08,20,05,52,13.20
2016,08,20,05,53,13.20
2016,08,20,05,54,13.10
2016,08,20,05,55,13.10
2016,08,20,05,56,13.10
2016,08,20,05,57,13.10
2016,08,20,05,58,13.00
2016,08,20,05,59,13.00
2016,08,20,06,00,13.00
2016,08,20,06,01,13.00
2016,08,20,06,02,12.90
2016,08,20,06,03,12.90
2016,08,20,06,04,12.90
2016,08,20,06,05,12.90
2016,08,20,06,06,12.90
2016,08,20,06,07,12.90
2016,08,20,06,08,12.80
2016,08,20,06,09,12.80
2016,08,20,06,10,12.80
2016,08,20,06,11,12.80
2016,08,20,06,12,12.80
2016,08,20,06,13,12.80
2016,08,20,06,14,12.70
2016,08,20,06,15,12.70
2016,08,20,06,16,12.70
2016,08,20,06,17,12.70
2016,08,20,06,18,12.70
2016,08,20,06,19,12.70
2016,08,20,06,20,12.70
2016,08,20,06,21,12.70
2016,08,20,06,22,12.70
2016,08,20,06,23,12.70
2016,08,20,06,24,12.70
2016,08,20,06,25,12.70
2016,08,20,06,26,12.70
2016,08,20,06,27,12.70
2016,08,20,06,28,12.70
2016,08,20,06,29,12.70
2016,08,20,06,30,12.70
2016,08,20,06,31,12.70
2016,08,20,06,32,12.70
2016,08,20,06,33,12.70
2016,08,20,06,34,12.70
2016,08,20,06,35,12.70
2016,08,20,06,36,12.70
2016,08,20,06,37,12.70
2016,08,20,06,38,12.70
2016,08,20,06,39,12.70
2016,08,20,06,40,12.70
2016,08,20,06,41,12.70
2016,08,20,06,42,12.80
2016,08,20,06,43,12.80
2016,08,20,06,44,12.80
2016,08,20,06,45,12.80
2016,08,20,06,46,12.90
2016,08,20,06,47,12.90
2016,08,20,06,48,13.00
2016,08,20,06,49,13.10
2016,08,20,06,50,13.10
2016,08,20,06,51,13.20
2016,08,20,06,52,13.30
2016,08,20,06,53,13.30
2016,08,20,06,54,13.40
2016,08,20,06,55,13.50
2016,08,20,06,56,13.60
2016,08,20,06,57,13.70
2016,08,20,06,58,13.70
2016,08,20,06,59,13.80
2016,08,20,07,00,13.80
2016,08,20,07,01,13.90
2016,08,20,07,02,13.90
2016,08,20,07,03,13.90
2016,08,20,07,04,14.00
2016,08,20,07,05,14.00
2016,08,20,07,06,14.10
2016,08,20,07,07,14.10
2016,08,20,07,08,14.20
2016,08,20,07,09,14.30
2016,08,20,07,10,14.30
2016,08,20,07,11,14.30
2016,08,20,07,12,14.40
2016,08,20,07,13,14.40
2016,08,20,07,14,14.50
2016,08,20,07,15,14.60
2016,08,20,07,16,14.60
2016,08,20,07,17,14.70
2016,08,20,07,18,14.70
2016,08,20,07,19,14.70
2016,08,20,07,20,14.60
2016,08,20,07,21,14.60
2016,08,20,07,22,14.60
2016,08,20,07,23,14.60
2016,08,20,07,24,14.60
2016,08,20,07,25,14.60
2016,08,20,07,26,14.60
2016,08,20,07,27,14.60
2016,08,20,07,28,14.60
2016,08,20,07,29,14.60
2016,08,20,07,30,14.70
2016,08,20,07,31,14.70
2016,08,20,07,32,14.70
2016,08,20,07,33,14.80
2016,08,20,07,34,14.90
2016,08,20,07,35,15.00
2016,08,20,07,36,15.10
2016,08,20,07,37,15.10
2016,08,20,07,38,15.10
2016,08,20,07,39,15.20
2016,08,20,07,40,15.20
2016,08,20,07,41,15.20
2016,08,20,07,42,15.20
2016,08,20,07,43,15.20
2016,08,20,07,44,15.20
2016,08,20,07,45,15.20
2016,08,20,07,46,15.20
2016,08,20,07,47,15.20
2016,08,20,07,48,15.20
2016,08,20,07,49,15.20
2016,08,20,07,50,15.20
2016,08,20,07,51,15.20
2016,08,20,07,52,15.20
2016,08,20,07,53,15.10
2016,08,20,07,54,15.10
2016,08,20,07,55,15.10
2016,08,20,07,56,15.00
2016,08,20,07,57,15.00
2016,08,20,07,58,15.00
2016,08,20,07,59,15.00
2016,08,20,08,00,15.10
2016,08,20,08,01,15.10
2016,08,20,08,02,15.20
2016,08,20,08,03,15.30
2016,08,20,08,04,15.40
2016,08,20,08,05,15.40
2016,08,20,08,06,15.40
2016,08,20,08,07,15.40
2016,08,20,08,08,15.50
2016,08,20,08,09,15.50
2016,08,20,08,10,15.60
2016,08,20,08,11,15.70
2016,08,20,08,12,15.70
2016,08,20,08,13,15.80
2016,08,20,08,14,15.90
2016,08,20,08,15,16.00
2016,08,20,08,16,16.10
2016,08,20,08,17,16.20
2016,08,20,08,18,16.20
2016,08,20,08,19,16.30
2016,08,20,08,20,16.40
2016,08,20,08,21,16.50
2016,08,20,08,22,16.50
2016,08,20,08,23,16.50
2016,08,20,08,24,16.60
2016,08,20,08,25,16.60
2016,08,20,08,26,16.60
2016,08,20,08,27,16.70
2016,08,20,08,28,16.70
2016,08,20,08,29,16.80
2016,08,20,08,30,16.90
2016,08,20,08,31,17.00
2016,08,20,08,32,17.10
2016,08,20,08,33,17.10
2016,08,20,08,34,17.10
2016,08,20,08,35,17.20
2016,08,20,08,36,17.10
2016,08,20,08,37,17.10
2016,08,20,08,38,17.00
2016,08,20,08,39,16.90
2016,08,20,08,40,16.80
2016,08,20,08,41,16.70
2016,08,20,08,42,16.70
2016,08,20,08,43,16.60
2016,08,20,08,44,16.50
2016,08,20,08,45,16.50
2016,08,20,08,46,16.40
2016,08,20,08,47,16.30
2016,08,20,08,48,16.30
2016,08,20,08,49,16.20
2016,08,20,08,50,16.10
2016,08,20,08,51,16.00
2016,08,20,08,52,15.90
2016,08,20,08,53,15.80
2016,08,20,08,54,15.80
2016,08,20,08,55,15.70
2016,08,20,08,56,15.60
2016,08,20,08,57,15.60
2016,08,20,08,58,15.60
2016,08,20,08,59,15.60
2016,08,20,09,00,15.50
2016,08,20,09,01,15.50
2016,08,20,09,02,15.50
2016,08,20,09,03,15.60
2016,08,20,09,04,15.60
2016,08,20,09,05,15.60
2016,08,20,09,06,15.70
2016,08,20,09,07,15.70
2016,08,20,09,08,15.80
2016,08,20,09,09,15.90
2016,08,20,09,10,15.90
2016,08,20,09,11,16.00
2016,08,20,09,12,16.10
2016,08,20,09,13,16.30
2016,08,20,09,14,16.40
2016,08,20,09,15,16.60
2016,08,20,09,16,16.70
2016,08,20,09,17,16.80
2016,08,20,09,18,16.90
2016,08,20,09,19,16.90
2016,08,20,09,20,16.90
2016,08,20,09,21,16.80
2016,08,20,09,22,16.60
2016,08,20,09,23,16.50
2016,08,20,09,24,16.40
2016,08,20,09,25,16.40
2016,08,20,09,26,16.30
2016,08,20,09,27,16.30
2016,08,20,09,28,16.30
2016,08,20,09,29,16.30
2016,08,20,09,30,16.30
2016,08,20,09,31,16.30
2016,08,20,09,32,16.30
2016,08,20,09,33,16.30
2016,08,20,09,34,16.30
2016,08,20,09,35,16.20
2016,08,20,09,36,16.20
2016,08,20,09,37,16.30
2016,08,20,09,38,16.40
2016,08,20,09,39,16.40
2016,08,20,09,40,16.50
2016,08,20,09,41,16.60
2016,08,20,09,42,16.60
2016,08,20,09,43,16.60
2016,08,20,09,44,16.60
2016,08,20,09,45,16.60
2016,08,20,09,46,16.50
2016,08,20,09,47,16.50
2016,08,20,09,48,16.40
2016,08,20,09,49,16.40
2016,08,20,09,50,16.50
2016,08,20,09,51,16.50
2016,08,20,09,52,16.50
2016,08,20,09,53,16.60
2016,08,20,09,54,16.60
2016,08,20,09,55,16.60
2016,08,20,09,56,16.60
2016,08,20,09,57,16.60
2016,08,20,09,58,16.60
2016,08,20,09,59,16.70
2016,08,20,10,00,16.70
2016,08,20,10,01,16.60
2016,08,20,10,02,16.60
2016,08,20,10,03,16.50
2016,08,20,10,04,16.50
2016,08,20,10,05,16.50
2016,08,20,10,06,16.50
2016,08,20,10,07,16.50
2016,08,20,10,08,16.40
2016,08,20,10,09,16.40
2016,08,20,10,10,16.40
2016,08,20,10,11,16.40
2016,08,20,10,12,16.40
2016,08,20,10,13,16.40
2016,08,20,10,14,16.30
2016,08,20,10,15,16.30
2016,08,20,10,16,16.20
2016,08,20,10,17,16.20
2016,08,20,10,18,16.20
2016,08,20,10,19,16.20
2016,08,20,10,20,16.20
2016,08,20,10,21,16.20
2016,08,20,10,22,16.20
2016,08,20,10,23,16.20
2016,08,20,10,24,16.20
2016,08,20,10,25,16.20
2016,08,20,10,26,16.20
2016,08,20,10,27,16.30
2016,08,20,10,28,16.30
2016,08,20,10,29,16.30
2016,08,20,10,30,16.40
2016,08,20,10,31,16.50
2016,08,20,10,32,16.50
2016,08,20,10,33,16.70
2016,08,20,10,34,16.80
2016,08,20,10,35,17.00
2016,08,20,10,36,17.20
2016,08,20,10,37,17.40
2016,08,20,10,38,17.50
2016,08,20,10,39,17.60
2016,08,20,10,40,17.60
2016,08,20,10,41,17.70
2016,08,20,10,42,17.70
2016,08,20,10,43,17.70
2016,08,20,10,44,17.80
2016,08,20,10,45,17.90
2016,08,20,10,46,17.90
2016,08,20,10,47,18.00
2016,08,20,10,48,18.00
2016,08,20,10,49,18.20
2016,08,20,10,50,18.20
2016,08,20,10,51,18.30
2016,08,20,10,52,18.50
2016,08,20,10,53,18.60
2016,08,20,10,54,18.80
2016,08,20,10,55,18.90
2016,08,20,10,56,19.10
2016,08,20,10,57,19.20
2016,08,20,10,58,19.40
2016,08,20,10,59,19.50
2016,08,20,11,00,19.60
2016,08,20,11,01,19.70
2016,08,20,11,02,19.80
2016,08,20,11,03,19.90
2016,08,20,11,04,19.90
2016,08,20,11,05,19.90
2016,08,20,11,06,20.00
2016,08,20,11,07,20.00
2016,08,20,11,08,20.00
2016,08,20,11,09,20.10
2016,08,20,11,10,20.10
2016,08,20,11,11,20.20
2016,08,20,11,12,20.20
2016,08,20,11,13,20.30
2016,08,20,11,14,20.30
2016,08,20,11,15,20.40
2016,08,20,11,16,20.50
2016,08,20,11,17,20.60
2016,08,20,11,18,20.60
2016,08,20,11,19,20.70
2016,08,20,11,20,20.80
2016,08,20,11,21,20.80
2016,08,20,11,22,20.90
2016,08,20,11,23,21.00
2016,08,20,11,24,21.00
2016,08,20,11,25,21.00
2016,08,20,11,26,21.00
2016,08,20,11,27,21.00
2016,08,20,11,28,20.90
2016,08,20,11,29,20.90
2016,08,20,11,30,20.90
2016,08,20,11,31,20.90
2016,08,20,11,32,20.90
2016,08,20,11,33,21.00
2016,08,20,11,34,21.00
2016,08,20,11,35,21.00
2016,08,20,11,36,21.10
2016,08,20,11,37,21.10
2016,08,20,11,38,21.10
2016,08,20,11,39,21.20
2016,08,20,11,40,21.20
2016,08,20,11,41,21.20
2016,08,20,11,42,21.20
2016,08,20,11,43,21.10
2016,08,20,11,44,21.10
2016,08,20,11,45,21.00
2016,08,20,11,46,20.90
2016,08,20,11,47,20.90
2016,08,20,11,48,20.90
2016,08,20,11,49,20.90
2016,08,20,11,50,20.90
2016,08,20,11,51,20.90
2016,08,20,11,52,20.90
2016,08,20,11,53,20.80
2016,08,20,11,54,20.80
2016,08,20,11,55,20.80
2016,08,20,11,56,20.80
2016,08,20,11,57,20.80
2016,08,20,11,58,20.90
2016,08,20,11,59,20.90
2016,08,20,12,00,20.90
2016,08,20,12,01,20.90
2016,08,20,12,02,20.90
2016,08,20,12,03,20.80
2016,08,20,12,04,20.80
2016,08,20,12,05,20.70
2016,08,20,12,06,20.60
2016,08,20,12,07,20.40
2016,08,20,12,08,20.20
2016,08,20,12,09,20.00
2016,08,20,12,10,19.90
2016,08,20,12,11,19.80
2016,08,20,12,12,19.80
2016,08,20,12,13,19.70
2016,08,20,12,14,19.70
2016,08,20,12,15,19.60
2016,08,20,12,16,19.60
2016,08,20,12,17,19.60
2016,08,20,12,18,19.60
2016,08,20,12,19,19.70
2016,08,20,12,20,19.80
2016,08,20,12,21,19.90
2016,08,20,12,22,20.00
2016,08,20,12,23,20.10
2016,08,20,12,24,20.20
2016,08,20,12,25,20.30
2016,08,20,12,26,20.30
2016,08,20,12,27,20.40
2016,08,20,12,28,20.50
2016,08,20,12,29,20.50
2016,08,20,12,30,20.60
2016,08,20,12,31,20.60
2016,08,20,12,32,20.60
2016,08,20,12,33,20.70
2016,08,20,12,34,20.70
2016,08,20,12,35,20.70
2016,08,20,12,36,20.80
2016,08,20,12,37,20.80
2016,08,20,12,38,20.90
2016,08,20,12,39,20.90
2016,08,20,12,40,21.00
2016,08,20,12,41,21.10
2016,08,20,12,42,21.10
2016,08,20,12,43,21.10
2016,08,20,12,44,21.20
2016,08,20,12,45,21.30
2016,08,20,12,46,21.30
2016,08,20,12,47,21.30
2016,08,20,12,48,21.20
2016,08,20,12,49,21.20
2016,08,20,12,50,21.20
2016,08,20,12,51,21.10
2016,08,20,12,52,21.10
2016,08,20,12,53,21.10
2016,08,20,12,54,21.10
2016,08,20,12,55,21.00
2016,08,20,12,56,21.00
2016,08,20,12,57,21.00
2016,08,20,12,58,21.10
2016,08,20,12,59,21.10
2016,08,20,13,00,21.20
2016,08,20,13,01,21.30
2016,08,20,13,02,21.30
2016,08,20,13,03,21.30
2016,08,20,13,04,21.40
2016,08,20,13,05,21.50
2016,08,20,13,06,21.50
2016,08,20,13,07,21.60
2016,08,20,13,08,21.60
2016,08,20,13,09,21.60
2016,08,20,13,10,21.60
2016,08,20,13,11,21.70
2016,08,20,13,12,21.70
2016,08,20,13,13,21.70
2016,08,20,13,14,21.80
2016,08,20,13,15,21.90
2016,08,20,13,16,21.90
2016,08,20,13,17,22.10
2016,08,20,13,18,22.20
2016,08,20,13,19,22.30
2016,08,20,13,20,22.40
2016,08,20,13,21,22.50
2016,08,20,13,22,22.50
2016,08,20,13,23,22.60
2016,08,20,13,24,22.70
2016,08,20,13,25,22.70
2016,08,20,13,26,22.80
2016,08,20,13,27,22.90
2016,08,20,13,28,22.90
2016,08,20,13,29,23.00
2016,08,20,13,30,23.10
2016,08,20,13,31,23.10
2016,08,20,13,32,23.20
2016,08,20,13,33,23.20
2016,08,20,13,34,23.30
2016,08,20,13,35,23.30
2016,08,20,13,36,23.30
2016,08,20,13,37,23.30
2016,08,20,13,38,23.30
2016,08,20,13,39,23.40
2016,08,20,13,40,23.40
2016,08,20,13,41,23.40
2016,08,20,13,42,23.40
2016,08,20,13,43,23.50
2016,08,20,13,44,23.50
2016,08,20,13,45,23.50
2016,08,20,13,46,23.50
2016,08,20,13,47,23.60
2016,08,20,13,48,23.60
2016,08,20,13,49,23.60
2016,08,20,13,50,23.60
2016,08,20,13,51,23.60
2016,08,20,13,52,23.60
2016,08,20,13,53,23.60
2016,08,20,13,54,23.60
2016,08,20,13,55,23.60
2016,08,20,13,56,23.60
2016,08,20,13,57,23.60
2016,08,20,13,58,23.60
2016,08,20,13,59,23.60
2016,08,20,14,00,23.60
2016,08,20,14,01,23.60
2016,08,20,14,02,23.70
2016,08,20,14,03,23.70
2016,08,20,14,04,23.70
2016,08,20,14,05,23.80
2016,08,20,14,06,23.80
2016,08,20,14,07,23.80
2016,08,20,14,08,23.80
2016,08,20,14,09,23.80
2016,08,20,14,10,23.80
2016,08,20,14,11,23.80
2016,08,20,14,12,23.80
2016,08,20,14,13,23.80
2016,08,20,14,14,23.80
2016,08,20,14,15,23.90
2016,08,20,14,16,23.90
2016,08,20,14,17,23.90
2016,08,20,14,18,23.90
2016,08,20,14,19,23.90
2016,08,20,14,20,24.00
2016,08,20,14,21,24.00
2016,08,20,14,22,24.00
2016,08,20,14,23,24.00
2016,08,20,14,24,24.10
2016,08,20,14,25,24.10
2016,08,20,14,26,24.10
2016,08,20,14,27,24.20
2016,08,20,14,28,24.20
2016,08,20,14,29,24.30
2016,08,20,14,30,24.40
2016,08,20,14,31,24.50
2016,08,20,14,32,24.50
2016,08,20,14,33,24.60
2016,08,20,14,34,24.70
2016,08,20,14,35,24.80
2016,08,20,14,36,24.80
2016,08,20,14,37,24.90
2016,08,20,14,38,24.90
2016,08,20,14,39,24.90
2016,08,20,14,40,24.80
2016,08,20,14,41,24.50
2016,08,20,14,42,24.20
2016,08,20,14,43,23.90
2016,08,20,14,44,23.70
2016,08,20,14,45,23.40
2016,08,20,14,46,23.20
2016,08,20,14,47,22.90
2016,08,20,14,48,22.60
2016,08,20,14,49,22.30
2016,08,20,14,50,22.10
2016,08,20,14,51,21.80
2016,08,20,14,52,21.70
2016,08,20,14,53,21.50
2016,08,20,14,54,21.40
2016,08,20,14,55,21.40
2016,08,20,14,56,21.40
2016,08,20,14,57,21.40
2016,08,20,14,58,21.40
2016,08,20,14,59,21.40
2016,08,20,15,00,21.40
2016,08,20,15,01,21.40
2016,08,20,15,02,21.40
2016,08,20,15,03,21.40
2016,08,20,15,04,21.40
2016,08,20,15,05,21.40
2016,08,20,15,06,21.40
2016,08,20,15,07,21.40
2016,08,20,15,08,21.40
2016,08,20,15,09,21.40
2016,08,20,15,10,21.50
2016,08,20,15,11,21.50
2016,08,20,15,12,21.60
2016,08,20,15,13,21.60
2016,08,20,15,14,21.70
2016,08,20,15,15,21.70
2016,08,20,15,16,21.80
2016,08,20,15,17,21.80
2016,08,20,15,18,21.90
2016,08,20,15,19,21.90
2016,08,20,15,20,22.00
2016,08,20,15,21,22.00
2016,08,20,15,22,21.90
2016,08,20,15,23,21.90
2016,08,20,15,24,21.90
2016,08,20,15,25,21.80
2016,08,20,15,26,21.80
2016,08,20,15,27,21.80
2016,08,20,15,28,21.80
2016,08,20,15,29,21.80
2016,08,20,15,30,21.80
2016,08,20,15,31,21.70
2016,08,20,15,32,21.70
2016,08,20,15,33,21.70
2016,08,20,15,34,21.70
2016,08,20,15,35,21.70
2016,08,20,15,36,21.50
2016,08,20,15,37,21.20
2016,08,20,15,38,20.90
2016,08,20,15,39,20.70
2016,08,20,15,40,20.40
2016,08,20,15,41,20.20
2016,08,20,15,42,19.90
2016,08,20,15,43,19.70
2016,08,20,15,44,19.60
2016,08,20,15,45,19.60
2016,08,20,15,46,19.50
2016,08,20,15,47,19.50
2016,08,20,15,48,19.40
2016,08,20,15,49,19.30
2016,08,20,15,50,19.20
2016,08,20,15,51,19.10
2016,08,20,15,52,18.90
2016,08,20,15,53,18.80
2016,08,20,15,54,18.60
2016,08,20,15,55,18.50
2016,08,20,15,56,18.50
2016,08,20,15,57,18.50
2016,08,20,15,58,18.40
2016,08,20,15,59,18.50
2016,08,20,16,00,18.50
2016,08,20,16,01,18.60
2016,08,20,16,02,18.60
2016,08,20,16,03,18.60
2016,08,20,16,04,18.60
2016,08,20,16,05,18.60
2016,08,20,16,06,18.60
2016,08,20,16,07,18.60
2016,08,20,16,08,18.60
2016,08,20,16,09,18.60
2016,08,20,16,10,18.60
2016,08,20,16,11,18.60
2016,08,20,16,12,18.60
2016,08,20,16,13,18.70
2016,08,20,16,14,18.80
2016,08,20,16,15,18.80
2016,08,20,16,16,18.90
2016,08,20,16,17,19.00
2016,08,20,16,18,19.10
2016,08,20,16,19,19.30
2016,08,20,16,20,19.40
2016,08,20,16,21,19.50
2016,08,20,16,22,19.60
2016,08,20,16,23,19.60
2016,08,20,16,24,19.60
2016,08,20,16,25,19.70
2016,08,20,16,26,19.70
2016,08,20,16,27,19.70
2016,08,20,16,28,19.70
2016,08,20,16,29,19.80
2016,08,20,16,30,19.70
2016,08,20,16,31,19.70
2016,08,20,16,32,19.70
2016,08,20,16,33,19.70
2016,08,20,16,34,19.70
2016,08,20,16,35,19.70
2016,08,20,16,36,19.80
2016,08,20,16,37,19.80
2016,08,20,16,38,20.00
2016,08,20,16,39,20.20
2016,08,20,16,40,20.30
2016,08,20,16,41,20.50
2016,08,20,16,42,20.70
2016,08,20,16,43,20.90
2016,08,20,16,44,21.00
2016,08,20,16,45,21.10
2016,08,20,16,46,21.20
2016,08,20,16,47,21.30
2016,08,20,16,48,21.30
2016,08,20,16,49,21.40
2016,08,20,16,50,21.40
2016,08,20,16,51,21.50
2016,08,20,16,52,21.50
2016,08,20,16,53,21.40
2016,08,20,16,54,21.40
2016,08,20,16,55,21.40
2016,08,20,16,56,21.30
2016,08,20,16,57,21.30
2016,08,20,16,58,21.20
2016,08,20,16,59,21.10
2016,08,20,17,00,21.00
2016,08,20,17,01,21.00
2016,08,20,17,02,21.00
2016,08,20,17,03,21.00
2016,08,20,17,04,21.00
2016,08,20,17,05,21.00
2016,08,20,17,06,20.90
2016,08,20,17,07,20.90
2016,08,20,17,08,20.90
2016,08,20,17,09,21.00
2016,08,20,17,10,21.00
2016,08,20,17,11,21.00
2016,08,20,17,12,21.10
2016,08,20,17,13,21.10
2016,08,20,17,14,21.10
2016,08,20,17,15,21.10
2016,08,20,17,16,21.10
2016,08,20,17,17,21.20
2016,08,20,17,18,21.20
2016,08,20,17,19,21.20